Date String (YYYY-MM-DD hh:mm:ss) UTC,Instrument flags,Ambient pressure (hPa),Sample flow (lpm),Bypass flow (lpm),Sample temperature (°C),Ambient temperature (°C),ASC tube jacket temperature (°C),LED temperature (°C),Box temperature (°C),Sample RH (%),Span deviation,Mass concentration (μg/m³),Mass concentration (μg/m³),Mass concentration (μg/m³)
DateTimeUTC,F1_M11,P_M11,Q1_M11,Q2_M11,T1_M11,T2_M11,T3_M11,T4_M11,T5_M11,U1_M11,ZSPAN_M11,X0_M11,X2_M11,X1_M11
2023-05-29 01:00:00,,0827.7,5.01,0.00,29.6,25.8,00.0,37.7,31.0,19.0,0000.0,0010.36,0003.86,0002.97
2023-05-29 01:01:00,,0827.6,5.01,0.00,29.5,25.9,00.0,37.7,30.9,19.3,0000.0,0010.30,0003.86,0002.96
2023-05-29 01:02:00,,0827.7,5.00,0.00,29.4,26.2,00.0,37.7,30.9,19.7,0000.0,0010.15,0003.83,0002.96
2023-05-29 01:03:00,,0827.7,5.00,0.00,29.4,26.5,00.0,37.7,30.9,19.7,0000.0,0009.23,0003.79,0002.96
2023-05-29 01:04:00,,0827.7,5.00,0.00,29.4,26.9,00.0,37.7,31.0,19.6,0000.0,0009.13,0003.76,0002.94
2023-05-29 01:05:00,,0827.7,5.00,0.00,29.4,27.1,00.0,37.7,31.0,20.6,0000.0,0009.23,0003.78,0002.91
2023-05-29 01:06:00,,0827.7,5.00,0.00,29.4,27.4,00.0,37.7,31.1,19.7,0000.0,0009.39,0003.76,0002.89
2023-05-29 01:07:00,,0827.7,4.99,0.00,29.4,27.6,00.0,37.8,31.1,20.0,0000.0,0009.53,0003.73,0002.88
2023-05-29 01:08:00,,0827.7,4.99,0.00,29.5,27.8,00.0,37.8,31.2,19.5,0000.0,0009.55,0003.76,0002.89
2023-05-29 01:09:00,,0827.8,5.00,0.00,29.5,27.9,00.0,37.8,31.2,20.8,0000.0,0009.77,0003.78,0002.90
2023-05-29 01:10:00,,0827.7,5.01,0.00,29.5,28.0,00.0,37.8,31.2,21.2,0000.0,0008.80,0003.76,0002.89
2023-05-29 01:11:00,,0827.8,5.00,0.00,29.5,28.1,00.0,37.8,31.3,21.7,0000.0,0008.29,0003.72,0002.86
2023-05-29 01:12:00,,0827.8,4.99,0.00,29.6,28.2,00.0,37.8,31.3,20.5,0000.0,0008.27,0003.71,0002.85
2023-05-29 01:13:00,,0827.8,4.99,0.00,29.6,28.3,00.0,37.8,31.3,19.6,0000.0,0008.38,0003.72,0002.84
2023-05-29 01:14:00,,0827.8,5.00,0.00,29.6,28.3,00.0,37.9,31.3,19.5,0000.0,0008.39,0003.70,0002.82
2023-05-29 01:15:00,,0827.7,5.00,0.00,29.7,28.0,00.0,37.9,31.3,19.4,0000.0,0008.50,0003.73,0002.81
2023-05-29 01:16:00,,0827.8,5.00,0.00,29.6,26.3,00.0,37.8,31.1,19.3,0000.0,0008.74,0003.71,0002.81
2023-05-29 01:17:00,,0827.8,5.00,0.00,29.6,25.7,00.0,37.7,31.0,19.2,0000.0,0009.10,0003.71,0002.80
2023-05-29 01:18:00,,0827.8,5.01,0.00,29.5,25.9,00.0,37.7,30.9,19.1,0000.0,0008.93,0003.72,0002.76
2023-05-29 01:19:00,,0827.9,5.01,0.00,29.4,26.1,00.0,37.7,30.9,19.6,0000.0,0009.89,0003.72,0002.73
2023-05-29 01:20:00,,0827.8,5.00,0.00,29.4,26.5,00.0,37.7,30.9,20.2,0000.0,0009.48,0003.69,0002.70
2023-05-29 01:21:00,,0827.7,5.00,0.00,29.4,26.8,00.0,37.7,31.0,20.5,0000.0,0009.39,0003.68,0002.70
2023-05-29 01:22:00,,0827.7,5.00,0.00,29.4,27.1,00.0,37.7,31.0,20.7,0000.0,0009.65,0003.65,0002.68
2023-05-29 01:23:00,,0827.9,5.00,0.00,29.4,27.3,00.0,37.7,31.1,20.9,0000.0,0009.97,0003.69,0002.68
2023-05-29 01:24:00,,0827.8,5.00,0.00,29.4,27.5,00.0,37.7,31.1,21.0,0000.0,0010.53,0003.71,0002.68
2023-05-29 01:25:00,,0827.8,5.01,0.00,29.4,27.7,00.0,37.7,31.1,21.3,0000.0,0010.93,0003.78,0002.68
2023-05-29 01:26:00,,0827.9,5.00,0.00,29.5,27.9,00.0,37.8,31.2,21.3,0000.0,0010.93,0003.81,0002.71
2023-05-29 01:27:00,,0827.9,4.99,0.00,29.5,28.0,00.0,37.8,31.2,20.9,0000.0,0010.81,0003.81,0002.70
2023-05-29 01:28:00,,0828.0,4.99,0.00,29.5,28.1,00.0,37.8,31.2,21.0,0000.0,0010.22,0003.82,0002.69
2023-05-29 01:29:00,,0828.0,5.01,0.00,29.5,28.2,00.0,37.8,31.3,20.7,0000.0,0010.18,0003.84,0002.70
2023-05-29 01:30:00,,0828.1,5.01,0.00,29.6,28.3,00.0,37.8,31.3,20.8,0000.0,0009.22,0003.78,0002.69
2023-05-29 01:31:00,,0828.1,5.01,0.00,29.6,28.4,00.0,37.9,31.3,20.4,0000.0,0009.12,0003.78,0002.68
2023-05-29 01:32:00,,0828.0,4.99,0.00,29.6,28.4,00.0,37.9,31.4,20.5,0000.0,0009.34,0003.79,0002.67
2023-05-29 01:33:00,,0828.0,4.98,0.00,29.7,28.2,00.0,37.9,31.4,20.3,0000.0,0009.39,0003.80,0002.66
2023-05-29 01:34:00,,0828.0,5.00,0.00,29.7,26.5,00.0,37.8,31.1,20.4,0000.0,0009.75,0003.79,0002.64
2023-05-29 01:35:00,,0828.1,5.01,0.00,29.6,25.7,00.0,37.7,31.0,20.6,0000.0,0009.29,0003.74,0002.62
2023-05-29 01:36:00,,0828.1,5.01,0.00,29.5,25.8,00.0,37.7,30.9,21.0,0000.0,0008.79,0003.69,0002.63
2023-05-29 01:37:00,,0828.1,5.01,0.00,29.4,26.1,00.0,37.7,30.9,21.4,0000.0,0008.59,0003.60,0002.61
2023-05-29 01:38:00,,0828.1,5.00,0.00,29.4,26.4,00.0,37.7,30.9,20.9,0000.0,0008.73,0003.60,0002.59
2023-05-29 01:39:00,,0828.1,5.00,0.00,29.4,26.8,00.0,37.7,31.0,20.8,0000.0,0008.80,0003.62,0002.60
2023-05-29 01:40:00,,0828.1,5.01,0.00,29.4,27.1,00.0,37.7,31.0,21.0,0000.0,0009.29,0003.57,0002.61
2023-05-29 01:41:00,,0828.1,4.99,0.00,29.4,27.3,00.0,37.7,31.1,21.3,0000.0,0009.56,0003.58,0002.62
2023-05-29 01:42:00,,0828.1,4.99,0.00,29.5,27.6,00.0,37.8,31.1,22.0,0000.0,0009.61,0003.60,0002.65
2023-05-29 01:43:00,,0828.1,5.00,0.00,29.5,27.7,00.0,37.8,31.2,21.8,0000.0,0009.41,0003.60,0002.66
2023-05-29 01:44:00,,0828.1,5.00,0.00,29.5,27.9,00.0,37.8,31.2,21.6,0000.0,0009.37,0003.58,0002.68
2023-05-29 01:45:00,,0828.1,5.00,0.00,29.5,28.0,00.0,37.8,31.2,21.3,0000.0,0008.60,0003.54,0002.70
2023-05-29 01:46:00,,0828.0,5.01,0.00,29.5,28.1,00.0,37.8,31.3,20.9,0000.0,0008.92,0003.55,0002.71
2023-05-29 01:47:00,,0828.1,5.01,0.00,29.6,28.2,00.0,37.8,31.3,20.9,0000.0,0009.09,0003.59,0002.71
2023-05-29 01:48:00,,0828.1,5.00,0.00,29.6,28.3,00.0,37.9,31.3,20.8,0000.0,0009.29,0003.64,0002.71
2023-05-29 01:49:00,,0828.1,5.00,0.00,29.6,28.4,00.0,37.9,31.4,20.6,0000.0,0008.98,0003.63,0002.72
2023-05-29 01:50:00,,0828.1,5.00,0.00,29.7,28.5,00.0,37.9,31.4,20.5,0000.0,0008.94,0003.64,0002.70
2023-05-29 01:51:00,,0828.2,4.99,0.00,29.7,27.6,00.0,37.9,31.3,20.5,0000.0,0008.54,0003.73,0002.70
2023-05-29 01:52:00,,0828.2,5.01,0.00,29.6,26.0,00.0,37.8,31.0,20.7,0000.0,0008.26,0003.75,0002.70
2023-05-29 01:53:00,,0828.2,5.00,0.00,29.6,25.7,00.0,37.7,30.9,20.9,0000.0,0008.26,0003.74,0002.69
2023-05-29 01:54:00,,0828.2,5.00,0.00,29.5,25.8,00.0,37.7,30.9,20.8,0000.0,0008.33,0003.76,0002.69
2023-05-29 01:55:00,,0828.2,5.00,0.00,29.4,26.2,00.0,37.7,30.9,20.7,0000.0,0008.16,0003.79,0002.71
2023-05-29 01:56:00,,0828.2,5.00,0.00,29.4,26.5,00.0,37.7,30.9,20.4,0000.0,0008.17,0003.80,0002.70
2023-05-29 01:57:00,,0828.1,5.00,0.00,29.4,26.8,00.0,37.7,31.0,20.5,0000.0,0007.87,0003.77,0002.69
2023-05-29 01:58:00,,0828.2,5.00,0.00,29.4,27.1,00.0,37.7,31.0,20.7,0000.0,0007.67,0003.72,0002.68
2023-05-29 01:59:00,,0828.2,4.99,0.00,29.4,27.4,00.0,37.7,31.1,20.9,0000.0,0007.80,0003.72,0002.67
